This is the latest recevied weather packets stored in our database for station/object KC9DRE. If no packets are shown the sender has not sent any weather packets the latest 1 day(s).
| Time | Temp. | Humidity | Pressure | Rain* | Wind** | Luminosity | Snow |
|---|---|---|---|---|---|---|---|
| 1836274645 | 15.56° C | 97% | 1018 hPa | 0 mm | 0 m/s | 0 W/m² | - |
| 1836274498 | 15.56° C | 97% | 1018.2 hPa | 0 mm | 0 m/s | 0 W/m² | - |
| 1836274343 | 15.56° C | 97% | 1018.1 hPa | 0 mm | 0 m/s | 0 W/m² | - |
| 1836274196 | 15.56° C | 97% | 1018.2 hPa | 0 mm | 0 m/s | 0 W/m² | - |
| 1836274041 | 15.56° C | 97% | 1018.1 hPa | 0 mm | 0 m/s | 0 W/m² | - |
| 1778047648 | 9.44° C | 97% | 1008.1 hPa | 0 mm | 0.89 m/s, 274° | 0 W/m² | - |
| 1778047344 | 9.44° C | 97% | 1008.2 hPa | 0 mm | 0.89 m/s, 57° | 0 W/m² | - |
| 1778047041 | 9.44° C | 97% | 1008.1 hPa | 0 mm | 0.89 m/s, 320° | 0 W/m² | - |
| 1778046738 | 9.44° C | 97% | 1008.7 hPa | 0 mm | 0.89 m/s, 321° | 0 W/m² | - |
| 1778046435 | 10° C | 97% | 1008.4 hPa | 0 mm | 0 m/s | 0 W/m² | - |
| 1778046131 | 10° C | 97% | 1008.4 hPa | 0 mm | 0.45 m/s, 253° | 0 W/m² | - |
| 1778045829 | 10° C | 97% | 1008.1 hPa | 0 mm | 0 m/s | 0 W/m² | - |
| 1778045527 | 10° C | 97% | 1008 hPa | 0 mm | 0.45 m/s, 275° | 0 W/m² | - |
| 1778045225 | 10° C | 97% | 1007.7 hPa | 0 mm | 0 m/s | 0 W/m² | - |
| 1778044923 | 10° C | 97% | 1007.9 hPa | 0 mm | 0.89 m/s, 280° | 0 W/m² | - |
| 1778044620 | 10° C | 97% | 1008 hPa | 0 mm | 0.45 m/s, 267° | 0 W/m² | - |
| 1778044316 | 10° C | 97% | 1007.9 hPa | 0 mm | 0 m/s | 0 W/m² | - |
| 1778044015 | 10° C | 97% | 1008 hPa | 0 mm | 0.45 m/s, 248° | 0 W/m² | - |
| 1778043712 | 10° C | 97% | 1008 hPa | 0 mm | 0.45 m/s, 302° | 0 W/m² | - |
| 1778043408 | 10° C | 96% | 1007.9 hPa | 0 mm | 0 m/s | 0 W/m² | - |
| 1778043105 | 10° C | 96% | 1008.2 hPa | 0 mm | 0 m/s | 0 W/m² | - |
| 1778042803 | 10° C | 96% | 1007.8 hPa | 0 mm | 0.45 m/s, 286° | 0 W/m² | - |
| 1778042499 | 10° C | 96% | 1007.8 hPa | 0 mm | 0.45 m/s, 266° | 0 W/m² | - |
| 1778042197 | 10° C | 96% | 1007.5 hPa | 0 mm | 0.45 m/s, 293° | 0 W/m² | - |
| 1778041895 | 10° C | 96% | 1007.6 hPa | 0 mm | 0.45 m/s, 342° | 0 W/m² | - |
* Rain latest hour (hover to see other rain measurements)
** Current wind speed in m/s (hover to see current wind gust speed)